Home   Weather   Amarillo   Past weeks

Flag for USA Past Weather in Amarillo, Texas, USA — Yesterday and Last 2 Weeks

Now
85 °F

Sunny.


Feels Like: 82 °F
Forecast: 56 / 95 °F
Wind: 14 mph from Northwest

Location: Amarillo International Airport

Current Time: May 25, 2017 at 11:15:49 am

Latest Report: May 25, 2017 at 9:53 am


Visibility: 10 mi

Pressure: 29.47 "Hg (25.98 "Hg at 1117m altitude)

Humidity: 17%

Dew Point: 36 °F

Location of AmarilloLocation

Past Weather in Amarillo — Graph

°F

Amarillo Temperature Yesterday

Maximum temperature yesterday: 84 °F (at 4:53 pm)
Minimum temperature yesterday: 42 °F (at 6:53 am)
Average temperature yesterday: 64 °F

High & Low Weather Summary for the Past Weeks

 TemperatureHumidityPressure
High91 °F (May 14, 4:53 pm)96% (May 12, 4:53 am)30.14 "Hg (May 12, 4:53 am)
Low39 °F (May 20, 6:53 am)12% (May 16, 6:53 pm)29.37 "Hg (May 16, 5:53 pm)
Average64 °F54%29.81 "Hg
* Reported May 10 9:53 am — May 25 9:53 am, Amarillo. Weather by CustomWeather, © 2017

Note: Actual official high and low records may vary slightly from our data, if they occured in-between our weather recording intervals... More about our weather records

Advertising

Amarillo Weather History for the Previous 24 Hours

Scroll right to see more
 ConditionsComfort  
Time TempWeatherWind HumidityBarometerVisibility
9:53 am
Thu, May 25
85 °FSunny.14 mph17%29.47 "Hg10 mi
8:53 am75 °FSunny.14 mph25%29.47 "Hg10 mi
7:53 am64 °FSunny.9 mph45%29.46 "Hg10 mi
6:53 am55 °FSunny.12 mph57%29.46 "Hg10 mi
5:53 am53 °FClear.12 mph61%29.46 "Hg10 mi
4:53 am56 °FClear.13 mph55%29.46 "Hg10 mi
3:53 am60 °FClear.12 mph46%29.46 "Hg10 mi
2:53 am61 °FClear.17 mph44%29.48 "Hg10 mi
1:53 am57 °FClear.15 mph51%29.51 "Hg10 mi
12:53 am59 °FClear.14 mph46%29.52 "Hg10 mi
11:53 pm
Wed, May 24
60 °FClear.12 mph46%29.54 "Hg10 mi
10:53 pm62 °FClear.10 mph43%29.55 "Hg10 mi
9:53 pm63 °FClear.9 mph41%29.55 "Hg10 mi
8:53 pm70 °FClear.10 mph34%29.54 "Hg10 mi
7:53 pm79 °FSunny.6 mph21%29.55 "Hg10 mi
6:53 pm84 °FSunny.7 mph15%29.59 "Hg10 mi
5:53 pm83 °FSunny.No wind16%29.60 "Hg10 mi
4:53 pm84 °FSunny.5 mph18%29.60 "Hg10 mi
3:53 pm82 °FSunny.8 mph17%29.65 "Hg10 mi
2:53 pm81 °FSunny.13 mph20%29.67 "Hg10 mi
1:53 pm79 °FSunny.18 mph21%29.69 "Hg10 mi
12:53 pm77 °FSunny.15 mph24%29.72 "Hg10 mi
11:53 am73 °FSunny.16 mph28%29.77 "Hg10 mi
Weather by CustomWeather, © 2017

See weather overviewHow to use our weather pages